| Date | Time | Temp. (oF) | Dew Point (oF) | Rel. Hum. (%) | Press. (in.) | Wind Dir. | Wind Speed (mph) | Hourly Rainfall (in.) |
|
|---|---|---|---|---|---|---|---|---|---|
| 1 | 03/27 | 00:00 | 41 | 34 | 78 | 30.18 | S | 4 | 0.00 |
| 2 | 03/26 | 23:00 | 42 | 35 | 77 | 30.17 | SE | 3 | 0.00 |
| 3 | 03/26 | 22:00 | 42 | 33 | 73 | 30.18 | ENE | 1 | 0.00 |
| 4 | 03/26 | 21:00 | 43 | 34 | 73 | 30.18 | SSW | 1 | 0.00 |
| 5 | 03/26 | 20:00 | 44 | 34 | 68 | 30.18 | SSW | 0 | 0.00 |
| 6 | 03/26 | 19:00 | 44 | 31 | 62 | 30.17 | SSW | 1 | 0.00 |
| 7 | 03/26 | 18:00 | 45 | 32 | 62 | 30.16 | ESE | 0 | 0.00 |
| 8 | 03/26 | 17:00 | 45 | 32 | 61 | 30.16 | SSE | 2 | 0.00 |
| 9 | 03/26 | 16:00 | 45 | 31 | 58 | 30.15 | SSE | 1 | 0.00 |
| 10 | 03/26 | 15:00 | 45 | 31 | 60 | 30.16 | ESE | 4 | 0.00 |
| 11 | 03/26 | 14:00 | 45 | 31 | 60 | 30.16 | ESE | 2 | 0.00 |
| 12 | miss | miss | miss | miss | miss | miss | miss | miss | |
| 13 | 03/26 | 13:44 | 45 | 32 | 61 | 30.16 | SE | 2 | 0.00 |
| 14 | miss | miss | miss | miss | miss | miss | miss | miss | |
| 15 | 03/26 | 13:42 | 45 | 31 | 60 | 30.16 | SSE | 4 | 0.00 |
| 16 | miss | miss | miss | miss | miss | miss | miss | miss | |
| 17 | 03/26 | 13:40 | 45 | 32 | 61 | 30.16 | ESE | 1 | 0.00 |
| 18 | miss | miss | miss | miss | miss | miss | miss | miss | |
| 19 | 03/26 | 13:38 | 45 | 31 | 60 | 30.16 | SE | 2 | 0.00 |
| 20 | miss | miss | miss | miss | miss | miss | miss | miss | |
| 21 | 03/26 | 13:36 | 45 | 31 | 60 | 30.16 | ESE | 7 | 0.00 |
| 22 | miss | miss | miss | miss | miss | miss | miss | miss | |
| 23 | 03/26 | 13:34 | 45 | 31 | 60 | 30.16 | ENE | 4 | 0.00 |
| 24 | miss | miss | miss | miss | miss | miss | miss | miss | |
| 25 | 03/26 | 13:32 | 45 | 31 | 60 | 30.16 | ENE | 3 | 0.00 |
| 26 | miss | miss | miss | miss | miss | miss | miss | miss | |
| 27 | 03/26 | 13:32 | 45 | 31 | 60 | 30.16 | ENE | 3 | 0.00 |
| 28 | miss | miss | miss | miss | miss | miss | miss | miss | |
| 29 | 03/26 | 13:32 | 45 | 31 | 60 | 30.16 | ENE | 3 | 0.00 |
| 30 | miss | miss | miss | miss | miss | miss | miss | miss | |
| 31 | 03/26 | 13:32 | 45 | 31 | 60 | 30.16 | ENE | 3 | 0.00 |
| 32 | miss | miss | miss | miss | miss | miss | miss | miss | |
| 33 | 03/26 | 13:32 | 45 | 31 | 60 | 30.16 | ENE | 3 | 0.00 |
| 34 | miss | miss | miss | miss | miss | miss | miss | miss | |
| 35 | 03/26 | 13:32 | 45 | 31 | 60 | 30.16 | ENE | 3 | 0.00 |
| 36 | 03/26 | 13:00 | 45 | 32 | 62 | 30.18 | ESE | 1 | 0.00 |
| 37 | 03/26 | 12:00 | 44 | 31 | 62 | 30.18 | NE | 2 | 0.00 |
| 38 | 03/26 | 11:00 | 45 | 33 | 63 | 30.18 | ENE | 7 | 0.00 |
| 39 | 03/26 | 10:00 | 43 | 32 | 66 | 30.19 | ESE | 4 | 0.00 |
| 40 | 03/26 | 09:00 | 40 | 33 | 77 | 30.17 | ESE | 5 | 0.00 |
| 41 | 03/26 | 08:00 | 38 | 34 | 87 | 30.17 | E | 5 | 0.00 |
| 42 | 03/26 | 07:00 | 35 | 34 | 99 | 30.17 | NE | 4 | 0.00 |
| 43 | 03/26 | 06:00 | 34 | 33 | 100 | 30.14 | NE | 5 | 0.00 |
| 44 | 03/26 | 05:00 | 33 | 32 | 100 | 30.12 | SE | 0 | 0.00 |
| 45 | 03/26 | 04:00 | 32 | 32 | 100 | 30.09 | NE | 0 | 0.00 |
| 46 | 03/26 | 03:00 | 32 | 31 | 99 | 30.09 | N | 0 | 0.00 |
| 47 | 03/26 | 02:00 | 32 | 31 | 98 | 30.09 | N | 0 | 0.00 |
| 48 | 03/26 | 01:00 | 32 | 30 | 96 | 30.09 | WSW | 0 | 0.00 |
| 49 | 03/26 | 00:00 | 33 | 31 | 94 | 30.08 | WSW | 0 | 0.00 |
| 50 | 03/25 | 23:00 | 34 | 31 | 91 | 30.08 | WSW | 0 | 0.00 |
| 51 | 03/25 | 22:00 | 36 | 32 | 88 | 30.08 | WSW | 0 | 0.00 |
| 52 | 03/25 | 21:00 | 37 | 32 | 84 | 30.08 | WSW | 2 | 0.00 |
| 53 | 03/25 | 20:00 | 40 | 34 | 79 | 30.06 | WSW | 1 | 0.00 |
| 54 | 03/25 | 19:00 | 43 | 34 | 73 | 30.05 | W | 2 | 0.00 |
| 55 | 03/25 | 18:00 | 44 | 35 | 71 | 30.03 | W | 2 | 0.00 |
| 56 | 03/25 | 17:00 | 45 | 36 | 73 | 30.02 | W | 4 | 0.00 |
| 57 | 03/25 | 16:00 | 45 | 37 | 76 | 29.99 | WNW | 3 | 0.00 |
| 58 | 03/25 | 15:00 | 44 | 37 | 78 | 30.01 | NW | 9 | 0.00 |
| 59 | 03/25 | 14:00 | 43 | 37 | 82 | 30.02 | NW | 6 | 0.00 |
| 60 | 03/25 | 13:00 | 44 | 36 | 76 | 30.05 | W | 6 | 0.00 |
| 61 | 03/25 | 12:00 | 44 | 37 | 78 | 30.06 | NW | 8 | 0.00 |
| 62 | 03/25 | 11:00 | 42 | 36 | 81 | 30.09 | NW | 6 | 0.00 |
| 63 | 03/25 | 10:00 | 41 | 36 | 83 | 30.10 | W | 6 | 0.00 |
| 64 | 03/25 | 09:00 | 41 | 37 | 88 | 30.10 | WSW | 3 | 0.00 |
| 65 | 03/25 | 08:00 | 40 | 37 | 90 | 30.09 | W | 4 | 0.00 |
| 66 | 03/25 | 07:00 | 39 | 36 | 91 | 30.07 | WSW | 1 | 0.00 |
| 67 | 03/25 | 06:00 | 39 | 36 | 91 | 30.04 | WNW | 0 | 0.00 |
| 68 | 03/25 | 05:00 | 39 | 36 | 92 | 30.05 | WSW | 0 | 0.00 |
| 69 | 03/25 | 04:00 | 39 | 37 | 93 | 30.05 | SSW | 2 | 0.00 |
| 70 | 03/25 | 03:00 | 39 | 36 | 92 | 30.04 | SSW | 0 | 0.00 |
| 71 | 03/25 | 02:00 | 38 | 35 | 92 | 30.06 | SSW | 2 | 0.00 |
| 72 | 03/25 | 01:00 | 39 | 36 | 89 | 30.06 | WSW | 0 | 0.00 |
| 73 | 03/25 | 00:00 | 39 | 35 | 86 | 30.07 | WNW | 2 | 0.00 |